Terminal Aerodrome Forecast
Issued by NWS

Current Version | Previous Version | Graphics & Text | Print | Product List | Glossary On
Versions: 1 2 3 4 5 6 7 8 9 10 11 12 13 14 15 16 17 18 19 20 21 22
808
FTUS41 KRLX 260829 AAA
TAFCKB
TAF AMD
KCKB 260829Z 2608/2706 00000KT 1SM BR OVC002
      TEMPO 2608/2610 3SM BR SCT002
     FM261000 00000KT P6SM BKN070
     FM261400 25006KT P6SM FEW070
     FM261800 25009G15KT P6SM BKN060
     FM262300 27007KT P6SM SCT060
     FM270200 VRB03KT P6SM BKN060=

USA.gov is the U.S. government's official web portal to all federal, state and local government web resources and services.